Total_Precipitation_Accumulation
1.05 0.84 0.91 0.81 0.82 0.71 0.57 0.66 0.87 1.00 1.06 1.15 1.34 0.94 0.43 0.33 0.35 0.31 0.20 0.20 0.35 0.57 0.61 0.68 0.58 0.48 0.49 0.38 0.25 0.24 0.19 0.16 0.16 0.16 0.16 0.18 0.17 0.15 0.15 0.20 0.23 0.23 0.24
1.77 2.72 2.87 2.70 2.24 2.12 2.08 1.85 1.48 1.46 1.56 1.40 1.41 1.85 1.68 1.06 0.97 0.67 0.42 0.32 0.38 0.42 0.51 0.65 0.63 0.64 0.63 0.47 0.33 0.39 0.38 0.26 0.23 0.19 0.16 0.17 0.20 0.19 0.18 0.23 0.24 0.24 0.24
1.32 1.42 2.35 2.27 1.85 1.66 1.72 1.71 1.81 1.57 1.41 1.23 1.09 1.34 1.64 1.48 0.99 0.82 0.67 0.49 0.47 0.44 0.46 0.68 0.66 0.65 0.61 0.53 0.60 0.66 0.58 0.53 0.42 0.36 0.26 0.23 0.21 0.20 0.18 0.19 0.18 0.19 0.22
0.80 1.19 1.03 0.80 0.82 0.85 0.89 0.86 0.93 1.04 0.99 0.88 0.61 0.53 0.63 0.84 1.01 0.75 0.57 0.46 0.40 0.39 0.44 0.65 0.79 0.75 0.61 0.56 0.69 0.82 0.80 0.71 0.46 0.40 0.37 0.35 0.31 0.25 0.20 0.21 0.19 0.17 0.19
0.39 0.54 0.72 0.77 0.72 0.69 0.62 0.62 0.76 0.81 0.86 0.75 0.62 0.68 0.92 1.01 0.92 0.78 0.55 0.43 0.43 0.42 0.41 0.51 0.60 0.77 0.75 0.74 0.66 0.89 0.97 0.94 0.78 0.62 0.61 0.57 0.44 0.31 0.26 0.27 0.26 0.22 0.22
0.49 0.65 0.85 1.00 1.02 0.89 0.73 0.65 0.67 0.74 0.71 0.71 0.70 0.65 0.59 0.72 1.00 1.09 1.03 0.89 0.73 0.70 0.62 0.56 0.52 0.53 0.56 0.63 0.73 0.94 1.07 1.06 1.03 0.93 0.80 0.83 0.67 0.52 0.45 0.46 0.43 0.33 0.30
1.01 0.81 0.88 1.04 1.01 0.87 0.87 0.94 1.00 0.92 0.77 0.82 1.07 0.74 0.56 0.37 0.27 0.24 0.37 0.50 0.52 0.56 0.61 0.79 0.74 0.69 0.69 0.88 0.87 0.83 1.18 1.48 1.14 1.05 1.02 1.00 1.01 1.00 1.03 1.03 1.06 1.05 0.86
1.14 1.25 1.21 1.06 0.84 0.90 0.91 0.83 0.80 0.92 0.96 1.23 1.64 1.39 1.19 0.91 0.53 0.32 0.29 0.31 0.35 0.55 0.62 0.65 0.86 0.76 0.62 0.66 0.84 0.98 0.95 1.39 1.63 1.37 1.31 1.36 1.38 1.28 1.28 1.38 1.32 1.17 1.07
1.47 1.55 1.54 1.62 1.54 1.29 0.99 0.94 0.85 0.82 0.95 1.07 1.28 1.80 1.42 1.02 0.88 0.81 0.65 0.62 0.61 0.79 0.87 1.06 1.16 0.99 0.89 0.78 0.80 0.85 0.93 1.01 1.21 1.37 1.42 1.37 1.50 1.60 1.79 1.96 2.00 1.87 1.99
1.98 2.36 2.56 2.47 2.29 1.91 1.80 1.86 1.83 1.66 1.69 1.45 1.46 1.41 1.32 1.07 1.02 1.06 0.93 0.89 1.01 1.60 1.95 1.87 1.80 1.99 1.98 1.64 1.48 1.34 1.35 1.36 1.24 1.45 1.80 2.03 2.28 2.56 2.61 2.54 2.36 2.08 2.15
2.15 2.10 2.43 2.95 3.03 3.15 2.76 2.39 2.38 2.35 2.29 2.31 2.10 1.92 1.76 1.69 1.70 1.51 1.13 1.13 1.22 1.59 1.36 1.34 1.43 1.46 1.88 2.36 2.58 2.22 1.62 1.26 1.45 1.56 1.88 2.48 2.65 2.94 3.74 4.18 3.28 3.28 3.23
2.21 2.03 2.49 2.78 3.08 2.80 2.59 2.72 2.64 2.38 2.23 1.94 1.90 1.89 1.74 1.56 1.38 1.43 1.15 0.73 0.69 0.94 1.14 1.22 1.31 1.31 1.47 1.71 2.01 2.22 2.39 2.29 1.89 1.76 1.87 1.94 1.80 1.80 2.15 3.32 4.13 4.08 3.91
2.05 2.08 1.66 2.02 2.24 2.43 2.65 2.35 2.21 2.09 2.09 2.26 2.10 1.95 2.02 1.90 1.73 1.56 1.55 1.19 0.86 0.78 1.07 1.21 1.24 1.39 1.48 1.72 2.02 2.32 2.07 2.20 2.36 2.32 2.36 2.46 2.24 1.82 1.60 1.87 2.33 3.17 4.22
1.42 1.44 1.51 1.37 1.38 1.54 1.78 1.88 1.73 1.57 1.50 1.53 1.53 1.59 1.69 1.66 1.57 1.61 1.90 2.02 1.76 1.09 0.79 0.87 1.05 1.15 1.27 1.40 1.66 2.18 2.21 2.51 2.34 2.30 2.46 2.85 3.10 2.63 2.07 1.83 2.04 2.47 2.43
1.16 1.22 1.33 1.41 1.40 1.46 1.54 1.58 1.53 1.38 1.30 1.13 1.07 1.09 1.18 1.17 1.21 1.27 1.41 1.61 1.89 1.64 1.03 0.74 0.79 0.87 0.98 1.24 1.58 1.69 1.71 2.21 2.26 2.28 2.39 2.58 3.15 2.94 2.37 1.83 1.68 1.63 1.57
1.07 1.45 1.33 1.06 1.08 1.15 1.37 1.71 1.68 1.50 1.42 1.38 1.30 1.27 1.21 1.16 1.16 1.14 1.19 1.29 1.53 1.76 1.63 0.87 0.83 0.90 1.00 1.15 1.37 1.23 1.23 1.67 1.78 1.88 1.86 2.01 2.26 2.57 2.14 1.75 1.54 1.39 1.28
1.09 1.18 1.36 1.45 1.31 1.17 1.14 1.23 1.21 1.28 1.54 1.61 1.61 1.55 1.40 1.41 1.71 1.82 1.79 1.82 2.01 2.27 2.42 1.67 1.16 1.01 0.95 0.92 1.02 1.05 1.05 0.87 0.96 1.35 1.36 1.32 1.35 1.70 2.03 1.85 1.57 1.30 1.03
0.55 0.63 0.55 0.58 0.58 0.77 0.87 0.82 0.86 0.96 1.06 1.10 1.20 1.38 1.28 1.24 1.26 1.26 1.37 1.47 1.53 1.63 1.88 1.67 1.24 1.18 1.12 1.07 1.07 1.14 1.15 1.08 0.98 1.34 1.24 1.10 1.00 0.93 1.08 1.21 1.20 1.04 0.88
0.46 0.54 0.56 0.51 0.47 0.43 0.47 0.45 0.41 0.49 0.65 0.83 0.97 1.04 1.00 1.13 1.17 1.26 1.40 1.52 1.56 1.68 1.84 1.83 1.46 1.25 1.14 1.08 1.14 1.12 1.06 1.05 1.01 1.30 1.10 1.02 1.07 1.08 1.05 1.12 1.09 0.93 0.71
0.54 0.47 0.50 0.46 0.46 0.47 0.44 0.53 0.62 0.52 0.49 0.49 0.54 0.66 0.78 1.02 1.17 1.34 1.45 1.43 1.44 1.52 1.45 1.44 1.24 0.95 0.76 0.67 0.75 0.72 0.71 0.64 0.60 0.64 0.73 0.70 0.84 0.92 0.92 0.88 0.88 0.86 0.78
0.57 0.63 0.59 0.69 0.60 0.52 0.57 0.63 0.66 0.66 0.56 0.54 0.60 0.60 0.57 0.75 0.91 0.94 1.06 1.16 1.31 1.43 1.52 1.51 1.22 0.92 0.66 0.49 0.44 0.39 0.47 0.46 0.48 0.44 0.40 0.40 0.40 0.40 0.46 0.51 0.51 0.65 0.75
0.89 0.84 0.76 0.61 0.69 0.76 1.18 1.01 0.92 0.89 0.88 0.82 0.70 0.74 0.92 1.04 0.84 0.79 0.71 0.66 0.69 0.86 1.05 1.12 1.10 0.93 0.72 0.65 0.70 0.77 0.78 0.76 0.62 0.28 0.25 0.24 0.24 0.17 0.20 0.29 0.51 0.49 0.47
1.16 1.01 0.95 0.97 0.86 0.83 1.17 1.11 1.10 1.04 1.10 1.08 1.13 0.99 0.73 0.70 0.74 0.53 0.57 0.62 0.57 0.57 0.58 0.56 0.61 0.47 0.39 0.41 0.65 0.82 0.77 0.68 0.54 0.33 0.50 0.51 0.29 0.15 0.09 0.20 0.31 0.27 0.34
1.17 1.29 1.23 1.25 1.36 1.50 1.51 1.28 1.25 1.06 1.06 0.99 0.90 0.94 0.89 0.72 0.53 0.43 0.48 0.54 0.45 0.32 0.28 0.34 0.37 0.51 0.64 0.65 0.82 1.05 0.99 0.92 0.75 0.52 0.50 0.57 0.27 0.27 0.16 0.12 0.20 0.13 0.18
1.36 1.48 1.30 1.16 1.22 1.37 1.33 1.00 0.97 0.96 0.88 0.75 0.58 0.48 0.61 0.64 0.68 0.62 0.48 0.48 0.36 0.43 0.57 0.54 0.51 0.63 0.74 0.79 0.83 1.05 1.19 1.27 1.14 0.64 0.47 0.54 0.28 0.23 0.22 0.16 0.14 0.14 0.08
1.08 1.05 1.13 1.20 1.31 1.03 1.06 0.84 0.65 0.61 0.70 0.65 0.66 0.56 0.66 0.70 0.72 0.67 0.50 0.40 0.49 0.34 0.41 0.44 0.46 0.41 0.54 0.66 0.74 0.77 0.78 1.27 1.10 1.06 0.53 0.80 0.51 0.52 0.87 0.30 0.17 0.16 0.13